Location: Caltech
(34.1382°N, 118.1253°W)
Time: 18:12:03
(UTC-08:00)

FENGYUN 3A - Visible Passes

Search period start: 24 February 2017 00:00
Search period end: 06 March 2017 00:00
Orbit: 820 x 832 km, 98.4° (Epoch: 24 February)

Date Brightness Start Highest point End Pass type
(mag) Time Alt. Az. Time Alt. Az. Time Alt. Az.
24 Feb 4.7 18:03:53 10° ESE 18:08:02 23° ENE 18:12:12 10° NNE visible
24 Feb 5.0 19:43:00 10° SSW 19:47:59 38° W 19:53:02 10° NNW visible
25 Feb 4.2 19:23:44 10° S 19:29:02 59° W 19:34:25 10° NNW visible
26 Feb 3.6 19:04:44 10° SSE 19:10:09 90° WSW 19:15:36 10° NNW visible
27 Feb 3.7 18:46:00 10° SSE 18:51:18 60° ENE 18:56:38 10° N visible
27 Feb 6.5 20:29:08 10° WSW 20:31:52 14° W 20:34:37 10° WNW visible
28 Feb 4.1 18:27:31 10° SE 18:32:30 39° ENE 18:37:31 10° N visible
28 Feb 6.0 20:08:43 10° SW 20:12:49 22° W 20:16:56 10° NW visible
01 Mar 4.6 18:09:20 10° ESE 18:13:46 27° ENE 18:18:13 10° NNE visible
01 Mar 5.3 19:48:59 10° SSW 19:53:49 33° W 19:58:40 10° NNW visible
02 Mar 4.5 19:29:36 10° S 19:34:51 51° W 19:40:07 10° NNW visible
03 Mar 3.8 19:10:32 10° S 19:15:56 78° WSW 19:21:23 10° NNW visible
04 Mar 3.6 18:51:42 10° SSE 18:57:04 70° ENE 19:02:28 10° N visible
04 Mar 6.6 20:35:49 10° WSW 20:37:43 12° W 20:39:38 10° WNW visible
05 Mar 3.9 18:33:08 10° SE 18:38:16 45° ENE 18:43:25 10° N visible
05 Mar 6.2 20:14:55 10° SW 20:18:39 19° W 20:22:24 10° NW visible
